THORAD DELTA 1 DEB, 18693

Orbit data source: Space-Track

THORAD DELTA 1 DEB, 18693 is space debris in SSO originally from a launch on Fri, 15 Nov 1974 UTC launched from the Air Force Western Test Range (AFWTR). Debris objects in space refer to the collection of defunct objects orbiting the Earth. Examples of debris include non-operational satellites, rocket bodies, and fragments generated from explosions, collisions, or faulty payload assembly.

Loading next visibility...
Identifier
18693, 1974-089FA
Orbit
SSO
Country
Flag of USUS
Related business
Manufacturer
Unknown
Mission
Spacecraft
Bus & Motor
Unknown
Mass
Unknown
Launch date (UTC)
1974-11-15 (51 years ago)
Launch vehicle
Unknown
Launch site
Air Force Western Test Range (AFWTR)
Object type
Payload
Rocket body
Debris
Shape & HBR
Unknown shape, 0.1 m
Radar Cross Section
Small (<0.1 m²)

Expand to show TLE details & history
Last TLE update: 1 week ago

TLE from 1 week ago
0 THORAD DELTA 1 DEB
1 18693U 74089FA  25342.76545499  .00000588  00000-0  20309-2 0  9997
2 18693 101.7463 276.3305 0176658 143.9322 288.8579 12.97995262756528
Epoch: 2025-12-08T18:22Z
TLE epoch observation values (Epoch: 2025-12-08T18:22:15.311Z)
Latitude
67.74188°
Longitude
-107.35679°
Altitude
1,239.992 km
Speed
7.261 km/s
True Right ascension
16h 23m 52s
True Declination
67° 37' 43"
Sunlit
Object was in daylight at epoch
Visualization orbit readout
Latitude
Unknown
Longitude
Unknown
Altitude
Unknown
Speed
Unknown
Apparent Right ascension
Unknown
Apparent Declination
Unknown
Sunlit
N/A
Visualization observer readout
Local Sidereal Time
10:39:13
Azimuth
Unknown
Elevation
Unknown
Doppler factor
Unknown
Orbital elements
Apogee altitude
1,402.503 km
Perigee altitude
1,132.373 km
Semi-major axis
7,645.575 km
Eccentricity
0.01767
Inclination
101.7463°
RAAN
276.3305°
Arg. of periapsis
143.9322°
True anomaly
286.92881°
Mean anomaly
288.8579°
Eccentric anomaly
287.89469°
Mean motion
3.24659 °/min
Orbital period
110.89 mins
BSTAR
0.0020309
Loading maneuver chart data...
Computing Atmospheric mass density...
Loading historical data...
Loading historical data...
Loading historical data...
Loading historical data...
Loading historical data...
Loading historical data...
Loading historical data...

Documentation

Showing up to 5 results
|